STARLINK-34309, 64167

Orbit data source: Space-Track

STARLINK-34309, 64167 is a payload satellite owned by SpaceX/Seattle (US) in SSO that was launched on Tue, 27 May 2025 UTC via an FALCON 9 launch vehicle from the Air Force Western Test Range (AFWTR). Payload-class satellites include a variety of spacecraft equipped with specific instruments for various scientific and technological missions. These include communications satellites like Starlink; space stations such as the ISS; scientific satellites like the Hubble; Earth observation satellites from companies like Planet Labs, Umbra, and HawkEye 360; GPS; miniature CubeSats for education and research; and military/defense satellites.

Loading next visibility...
Identifier
64167, 2025-112X
Orbit
SSO
Country
Flag of USUS
Related business
Manufacturer
SpaceX/Seattle
Mission
Operational Commercial Communications
Bus & Motor
STARLINK V2MO, Unknown motor
Mass
575 kg wet, ~530 kg dry
Launch date (UTC)
2025-05-27 (1 year ago)
Launch vehicle
FALCON 9
Launch site
Air Force Western Test Range (AFWTR)
Object type
Payload
Rocket body
Debris
Shape & HBR
Box + 2 Pan, 17.7 m
Radar Cross Section
36.964 m², Large (>1 m²)

Expand to show TLE details & history
Last TLE update: 10 hours ago

TLE from 10 hours ago
0 STARLINK-34309
1 64167U 25112X   26192.98477800  .00001997  00000-0  14222-3 0  9998
2 64167  97.2843 242.1400 0001360  97.2695 262.8687 15.05657935 62014
Epoch: 2026-07-11T23:38Z
TLE epoch observation values (Epoch: 2026-07-11T23:38:04.819Z)
Latitude
-0.00004°
Longitude
-42.27023°
Altitude
552.678 km
Speed
7.585 km/s
True Right ascension
16h 08m 33s
True Declination
0° 00' 00"
Sunlit
Object was in full shadow at epoch
Visualization orbit readout
Latitude
Unknown
Longitude
Unknown
Altitude
Unknown
Speed
Unknown
Apparent Right ascension
Unknown
Apparent Declination
Unknown
Sunlit
N/A
Visualization observer readout
Local Sidereal Time
21:55:55
Azimuth
Unknown
Elevation
Unknown
Doppler factor
Unknown
Orbital elements
Apogee altitude
547.408 km
Perigee altitude
545.525 km
Semi-major axis
6,924.604 km
Eccentricity
0.00014
Inclination
97.2843°
RAAN
242.14°
Arg. of periapsis
97.2695°
True anomaly
262.85324°
Mean anomaly
262.8687°
Eccentric anomaly
262.86097°
Mean motion
3.76661 °/min
Orbital period
95.58 mins
BSTAR
0.00014222
Loading maneuver chart data...
Computing Atmospheric mass density...
Loading historical data...
Loading historical data...
Loading historical data...
Loading historical data...
Loading historical data...
Loading historical data...
Loading historical data...

Documentation

Showing up to 5 results
|